User: anonymous   Login
Location: Hawks Ness
(60.2333°N, 1.1667°W)
Time: 05:20:28
(UTC+00:00)
Language:

Cosmos 2058 Rocket - Orbit

View from above orbital plane
View from above orbital plane
View from above satellite
View from above satellite

Ground track
Ground track

The orbit data is extracted from the following two-line orbital elements,

1 20466U 90010B   19339.47048524  .00000069  00000-0  58265-5 0  9993
2 20466  82.5045 249.2327 0019007 257.3476 102.5613 14.81370429610929
Epoch (UTC): 05 December 2019 11:17:29
Eccentricity: 0.0019007
inclination: 82.5045°
perigee height: 611 km
apogee height: 638 km
right ascension of ascending node: 249.2327°
argument of perigee: 257.3476°
revolutions per day: 14.81370429
mean anomaly at epoch: 102.5613°
orbit number at epoch: 61092

The dashed part of the orbit path shows where the satellite is in the earth's shadow,  

DLR